Visibility
12.3 14.2 15.0 15.0 14.9 14.7 13.4 11.0 0.2 15.0 15.0 0.1 0.0 0.0 15.0 15.0 15.0 15.0 15.0 15.0 15.0 15.0 15.0 15.0 15.0 15.0 15.0 15.0 15.0 14.7 9.2 13.8 1.4 15.0 15.0 15.0 15.0 15.0 14.2 5.6 3.9 0.6 10.4 0.1
15.0 7.9 10.2 12.9 15.0 9.8 2.7 0.0 0.1 15.0 0.3 0.0 0.2 0.0 1.9 15.0 13.7 15.0 15.0 13.6 15.0 10.8 15.0 15.0 15.0 15.0 15.0 15.0 15.0 15.0 15.0 0.0 0.1 0.2 11.9 15.0 15.0 15.0 15.0 15.0 2.1 2.3 4.4 2.7
15.0 15.0 13.5 15.0 14.0 7.1 7.8 0.0 0.0 0.0 0.0 0.0 0.1 0.4 0.0 3.1 15.0 15.0 12.8 14.2 8.3 14.5 15.0 15.0 15.0 15.0 15.0 15.0 15.0 15.0 8.9 0.0 0.1 4.1 2.4 15.0 15.0 15.0 15.0 15.0 0.2 15.0 15.0 15.0
14.7 13.8 15.0 13.7 7.3 13.2 2.6 0.0 0.0 11.3 0.0 0.0 2.1 15.0 15.0 15.0 0.1 13.3 14.9 4.2 15.0 15.0 15.0 15.0 15.0 15.0 15.0 15.0 15.0 15.0 15.0 15.0 11.4 13.0 15.0 15.0 15.0 15.0 15.0 15.0 15.0 15.0 15.0 15.0
14.9 15.0 14.9 14.6 9.8 9.5 1.3 0.0 0.0 0.0 12.2 15.0 14.9 0.1 0.0 15.0 15.0 9.3 1.2 0.0 12.8 15.0 15.0 15.0 15.0 15.0 15.0 15.0 15.0 15.0 15.0 14.8 14.8 14.0 15.0 15.0 15.0 15.0 15.0 15.0 15.0 15.0 15.0 0.5
13.9 12.8 15.0 15.0 10.1 8.4 0.1 2.0 12.7 0.5 10.2 11.3 2.5 15.0 15.0 10.0 15.0 14.3 15.0 15.0 15.0 14.7 15.0 15.0 15.0 15.0 15.0 15.0 15.0 15.0 15.0 13.5 0.4 0.2 3.4 1.7 10.1 15.0 15.0 15.0 15.0 15.0 15.0 15.0
15.0 15.0 15.0 15.0 15.0 7.5 9.3 7.7 15.0 0.0 0.1 0.2 15.0 15.0 15.0 15.0 15.0 9.7 6.4 7.8 13.0 15.0 15.0 15.0 15.0 15.0 15.0 15.0 15.0 15.0 15.0 15.0 13.5 1.3 5.8 0.1 14.2 15.0 15.0 15.0 15.0 15.0 15.0 15.0
15.0 15.0 15.0 15.0 15.0 12.5 15.0 11.1 8.2 0.0 0.2 0.3 0.1 0.1 0.0 15.0 15.0 14.0 15.0 4.9 9.9 15.0 10.9 5.7 0.3 0.2 3.0 7.6 15.0 15.0 15.0 10.6 0.1 0.9 11.5 14.0 15.0 15.0 15.0 15.0 14.1 15.0 15.0 15.0
14.7 14.3 15.0 15.0 15.0 6.3 11.7 15.0 13.0 4.9 0.0 4.2 15.0 14.8 1.7 0.4 15.0 3.5 6.9 5.5 7.2 15.0 15.0 10.5 0.1 0.4 15.0 15.0 15.0 15.0 15.0 15.0 15.0 15.0 15.0 12.2 15.0 15.0 15.0 15.0 14.9 15.0 15.0 15.0
15.0 15.0 13.7 15.0 11.4 7.0 15.0 13.4 3.5 1.3 0.1 11.2 5.9 4.1 15.0 15.0 0.2 9.7 0.7 4.7 0.1 14.4 7.8 0.2 14.7 15.0 15.0 15.0 15.0 15.0 15.0 15.0 15.0 15.0 15.0 12.9 15.0 15.0 15.0 15.0 15.0 15.0 15.0 15.0
15.0 15.0 15.0 14.9 11.9 9.2 5.0 5.1 9.9 11.9 0.0 3.1 10.8 1.9 15.0 12.6 7.6 15.0 0.1 0.3 5.9 15.0 15.0 15.0 15.0 15.0 15.0 15.0 15.0 15.0 14.3 15.0 15.0 15.0 4.5 8.0 15.0 15.0 15.0 15.0 15.0 15.0 15.0 13.8
11.1 9.0 15.0 8.1 14.4 15.0 6.0 9.3 9.7 15.0 1.3 0.2 15.0 11.2 9.0 15.0 12.7 15.0 15.0 6.9 15.0 15.0 15.0 15.0 15.0 10.9 2.0 15.0 15.0 15.0 15.0 15.0 14.3 15.0 10.8 13.6 15.0 15.0 15.0 15.0 15.0 14.8 13.6 3.8
15.0 15.0 14.7 7.4 6.7 3.8 15.0 12.4 10.7 15.0 1.1 1.5 0.1 0.0 15.0 15.0 15.0 15.0 15.0 15.0 15.0 15.0 15.0 15.0 15.0 15.0 12.3 5.6 4.4 15.0 15.0 15.0 6.2 14.6 2.0 15.0 15.0 15.0 15.0 15.0 15.0 15.0 15.0 15.0
15.0 15.0 8.7 5.5 3.3 6.0 13.0 15.0 15.0 15.0 6.5 1.6 1.4 13.7 10.1 7.5 13.0 15.0 15.0 15.0 15.0 15.0 15.0 15.0 15.0 10.2 14.6 15.0 15.0 15.0 15.0 15.0 14.9 1.3 4.6 9.8 10.2 15.0 15.0 15.0 15.0 15.0 15.0 15.0
15.0 15.0 10.2 5.3 10.7 15.0 15.0 15.0 15.0 10.6 15.0 15.0 15.0 15.0 15.0 15.0 15.0 15.0 15.0 15.0 15.0 15.0 15.0 15.0 15.0 15.0 15.0 15.0 15.0 15.0 15.0 15.0 15.0 15.0 15.0 15.0 11.3 15.0 15.0 15.0 15.0 15.0 15.0 12.9
15.0 6.6 13.4 15.0 15.0 15.0 15.0 0.2 6.5 15.0 15.0 15.0 10.4 15.0 15.0 15.0 15.0 15.0 15.0 15.0 15.0 15.0 15.0 15.0 15.0 15.0 15.0 15.0 10.7 15.0 15.0 15.0 15.0 15.0 15.0 15.0 15.0 15.0 15.0 15.0 15.0 15.0 15.0 15.0
14.8 15.0 15.0 15.0 15.0 15.0 0.2 3.6 3.7 15.0 15.0 15.0 15.0 15.0 15.0 15.0 15.0 15.0 15.0 15.0 15.0 15.0 15.0 15.0 15.0 15.0 15.0 15.0 11.8 15.0 15.0 15.0 15.0 15.0 15.0 3.3 14.6 2.1 15.0 15.0 15.0 15.0 15.0 15.0
15.0 15.0 15.0 13.3 14.6 15.0 15.0 15.0 15.0 15.0 15.0 15.0 15.0 15.0 15.0 15.0 15.0 15.0 15.0 15.0 15.0 15.0 15.0 15.0 15.0 15.0 15.0 8.2 1.6 15.0 15.0 15.0 15.0 15.0 15.0 15.0 15.0 15.0 15.0 15.0 15.0 15.0 15.0 15.0
15.0 9.0 5.6 13.1 14.4 15.0 15.0 15.0 15.0 15.0 15.0 15.0 15.0 15.0 15.0 15.0 15.0 15.0 15.0 15.0 15.0 15.0 15.0 15.0 15.0 15.0 15.0 15.0 12.6 15.0 15.0 15.0 15.0 15.0 15.0 15.0 15.0 15.0 15.0 15.0 15.0 15.0 15.0 15.0
15.0 8.0 0.1 0.0 15.0 15.0 15.0 15.0 15.0 15.0 15.0 15.0 15.0 15.0 15.0 15.0 15.0 15.0 15.0 15.0 15.0 15.0 15.0 15.0 15.0 15.0 15.0 15.0 15.0 15.0 15.0 15.0 15.0 15.0 6.3 15.0 15.0 15.0 15.0 15.0 15.0 15.0 15.0 15.0
12.8 0.4 4.7 15.0 15.0 15.0 15.0 15.0 15.0 15.0 15.0 15.0 15.0 15.0 15.0 15.0 15.0 15.0 15.0 15.0 15.0 15.0 15.0 15.0 15.0 13.6 15.0 15.0 15.0 15.0 15.0 15.0 15.0 15.0 15.0 15.0 15.0 15.0 15.0 15.0 15.0 15.0 15.0 15.0
15.0 15.0 15.0 15.0 15.0 15.0 15.0 15.0 15.0 15.0 15.0 15.0 15.0 15.0 15.0 15.0 15.0 15.0 15.0 15.0 15.0 15.0 15.0 15.0 9.9 15.0 15.0 15.0 15.0 15.0 15.0 15.0 15.0 15.0 15.0 15.0 15.0 15.0 15.0 15.0 15.0 15.0 15.0 15.0
15.0 15.0 15.0 15.0 15.0 15.0 15.0 15.0 15.0 15.0 15.0 15.0 15.0 15.0 15.0 15.0 15.0 15.0 15.0 15.0 15.0 15.0 15.0 15.0 14.6 14.8 15.0 15.0 15.0 15.0 15.0 15.0 15.0 15.0 15.0 15.0 15.0 15.0 12.5 0.5 15.0 15.0 15.0 15.0
15.0 15.0 15.0 15.0 9.4 1.2 0.3 6.5 13.7 15.0 15.0 15.0 15.0 13.4 15.0 15.0 15.0 11.6 14.0 15.0 15.0 9.0 8.2 15.0 4.9 0.2 7.5 15.0 15.0 15.0 15.0 15.0 15.0 15.0 15.0 15.0 13.6 0.1 0.1 0.1 0.8 14.7 15.0 15.0
15.0 15.0 2.2 1.7 0.5 0.3 0.1 0.8 4.5 10.8 15.0 15.0 15.0 15.0 15.0 14.5 15.0 15.0 15.0 11.1 15.0 15.0 11.8 2.9 2.1 0.3 0.3 3.8 0.2 0.1 12.8 15.0 15.0 15.0 15.0 5.0 0.3 0.2 0.1 0.1 0.1 3.0 15.0 15.0
15.0 15.0 3.9 0.9 15.0 1.8 0.9 0.1 0.1 15.0 15.0 15.0 15.0 15.0 15.0 15.0 15.0 15.0 14.8 15.0 14.6 10.4 0.3 0.1 0.1 0.4 0.8 0.2 1.7 10.2 9.5 2.2 0.8 0.6 0.2 0.1 0.1 0.1 0.1 0.1 0.1 0.2 15.0 15.0
15.0 0.9 0.0 0.5 11.2 0.1 0.0 0.1 0.4 15.0 15.0 15.0 15.0 15.0 15.0 15.0 15.0 15.0 2.8 0.2 15.0 1.4 0.1 3.2 13.9 5.0 0.7 0.5 0.7 2.9 3.1 0.2 0.2 0.2 0.1 0.1 0.1 0.1 0.3 0.2 0.4 15.0 15.0 15.0